Year,Month,Day,Hour,Minute,Value (Times are PST for windgust in km/hr)
2016,11,03,00,00,25.70
2016,11,03,00,01,24.20
2016,11,03,00,02,24.20
2016,11,03,00,03,22.50
2016,11,03,00,04,20.90
2016,11,03,00,05,19.30
2016,11,03,00,06,25.70
2016,11,03,00,07,29.00
2016,11,03,00,08,22.50
2016,11,03,00,09,29.00
2016,11,03,00,10,25.70
2016,11,03,00,11,20.90
2016,11,03,00,12,16.10
2016,11,03,00,13,17.70
2016,11,03,00,14,19.30
2016,11,03,00,15,25.70
2016,11,03,00,16,24.20
2016,11,03,00,17,25.70
2016,11,03,00,18,25.70
2016,11,03,00,19,29.00
2016,11,03,00,20,29.00
2016,11,03,00,21,29.00
2016,11,03,00,22,30.60
2016,11,03,00,23,14.50
2016,11,03,00,24,35.40
2016,11,03,00,25,25.70
2016,11,03,00,26,35.40
2016,11,03,00,27,32.20
2016,11,03,00,28,22.50
2016,11,03,00,29,35.40
2016,11,03,00,30,24.20
2016,11,03,00,31,35.40
2016,11,03,00,32,33.80
2016,11,03,00,33,37.00
2016,11,03,00,34,27.40
2016,11,03,00,35,27.40
2016,11,03,00,36,32.20
2016,11,03,00,37,29.00
2016,11,03,00,38,24.20
2016,11,03,00,39,35.40
2016,11,03,00,40,43.50
2016,11,03,00,41,37.00
2016,11,03,00,42,30.60
2016,11,03,00,43,27.40
2016,11,03,00,44,22.50
2016,11,03,00,45,22.50
2016,11,03,00,46,25.70
2016,11,03,00,47,20.90
2016,11,03,00,48,20.90
2016,11,03,00,49,22.50
2016,11,03,00,50,27.40
2016,11,03,00,51,33.80
2016,11,03,00,52,35.40
2016,11,03,00,53,35.40
2016,11,03,00,54,30.60
2016,11,03,00,55,37.00
2016,11,03,00,56,40.20
2016,11,03,00,57,48.30
2016,11,03,00,58,29.00
2016,11,03,00,59,20.90
2016,11,03,01,00,19.30
2016,11,03,01,01,20.90
2016,11,03,01,02,22.50
2016,11,03,01,03,12.90
2016,11,03,01,04,24.20
2016,11,03,01,05,17.70
2016,11,03,01,06,19.30
2016,11,03,01,07,17.70
2016,11,03,01,08,19.30
2016,11,03,01,09,22.50
2016,11,03,01,10,22.50
2016,11,03,01,11,24.20
2016,11,03,01,12,20.90
2016,11,03,01,13,29.00
2016,11,03,01,14,27.40
2016,11,03,01,15,29.00
2016,11,03,01,16,22.50
2016,11,03,01,17,19.30
2016,11,03,01,18,22.50
2016,11,03,01,19,20.90
2016,11,03,01,20,14.50
2016,11,03,01,21,20.90
2016,11,03,01,22,20.90
2016,11,03,01,23,20.90
2016,11,03,01,24,24.20
2016,11,03,01,25,24.20
2016,11,03,01,26,20.90
2016,11,03,01,27,24.20
2016,11,03,01,28,25.70
2016,11,03,01,29,17.70
2016,11,03,01,30,22.50
2016,11,03,01,31,11.30
2016,11,03,01,32,12.90
2016,11,03,01,33,16.10
2016,11,03,01,34,19.30
2016,11,03,01,35,16.10
2016,11,03,01,36,6.40
2016,11,03,01,37,11.30
2016,11,03,01,38,12.90
2016,11,03,01,39,20.90
2016,11,03,01,40,14.50
2016,11,03,01,41,14.50
2016,11,03,01,42,8.10
2016,11,03,01,43,16.10
2016,11,03,01,44,14.50
2016,11,03,01,45,17.70
2016,11,03,01,46,19.30
2016,11,03,01,47,14.50
2016,11,03,01,48,14.50
2016,11,03,01,49,14.50
2016,11,03,01,50,16.10
2016,11,03,01,51,14.50
2016,11,03,01,52,24.20
2016,11,03,01,53,22.50
2016,11,03,01,54,19.30
2016,11,03,01,55,9.60
2016,11,03,01,56,16.10
2016,11,03,01,57,19.30
2016,11,03,01,58,19.30
2016,11,03,01,59,22.50
2016,11,03,02,00,14.50
2016,11,03,02,01,14.50
2016,11,03,02,02,16.10
2016,11,03,02,03,12.90
2016,11,03,02,04,12.90
2016,11,03,02,05,17.70
2016,11,03,02,06,12.90
2016,11,03,02,07,11.30
2016,11,03,02,08,12.90
2016,11,03,02,09,14.50
2016,11,03,02,10,14.50
2016,11,03,02,11,22.50
2016,11,03,02,12,14.50
2016,11,03,02,13,25.70
2016,11,03,02,14,17.70
2016,11,03,02,15,17.70
2016,11,03,02,16,27.40
2016,11,03,02,17,22.50
2016,11,03,02,18,22.50
2016,11,03,02,19,27.40
2016,11,03,02,20,16.10
2016,11,03,02,21,22.50
2016,11,03,02,22,25.70
2016,11,03,02,23,22.50
2016,11,03,02,24,24.20
2016,11,03,02,25,29.00
2016,11,03,02,26,27.40
2016,11,03,02,27,20.90
2016,11,03,02,28,27.40
2016,11,03,02,29,20.90
2016,11,03,02,30,25.70
2016,11,03,02,31,54.70
2016,11,03,02,32,45.10
2016,11,03,02,33,27.40
2016,11,03,02,34,40.20
2016,11,03,02,35,32.20
2016,11,03,02,36,30.60
2016,11,03,02,37,19.30
2016,11,03,02,38,38.60
2016,11,03,02,39,37.00
2016,11,03,02,40,38.60
2016,11,03,02,41,45.10
2016,11,03,02,42,48.30
2016,11,03,02,43,37.00
2016,11,03,02,44,22.50
2016,11,03,02,45,22.50
2016,11,03,02,46,29.00
2016,11,03,02,47,25.70
2016,11,03,02,48,20.90
2016,11,03,02,49,25.70
2016,11,03,02,50,17.70
2016,11,03,02,51,16.10
2016,11,03,02,52,17.70
2016,11,03,02,53,22.50
2016,11,03,02,54,25.70
2016,11,03,02,55,19.30
2016,11,03,02,56,38.60
2016,11,03,02,57,30.60
2016,11,03,02,58,27.40
2016,11,03,02,59,37.00
2016,11,03,03,00,41.80
2016,11,03,03,01,30.60
2016,11,03,03,02,29.00
2016,11,03,03,03,38.60
2016,11,03,03,04,53.10
2016,11,03,03,05,37.00
2016,11,03,03,06,38.60
2016,11,03,03,07,45.10
2016,11,03,03,08,37.00
2016,11,03,03,09,27.40
2016,11,03,03,10,19.30
2016,11,03,03,11,24.20
2016,11,03,03,12,25.70
2016,11,03,03,13,17.70
2016,11,03,03,14,19.30
2016,11,03,03,15,22.50
2016,11,03,03,16,22.50
2016,11,03,03,17,22.50
2016,11,03,03,18,27.40
2016,11,03,03,19,48.30
2016,11,03,03,20,35.40
2016,11,03,03,21,27.40
2016,11,03,03,22,35.40
2016,11,03,03,23,29.00
2016,11,03,03,24,24.20
2016,11,03,03,25,27.40
2016,11,03,03,26,37.00
2016,11,03,03,27,27.40
2016,11,03,03,28,25.70
2016,11,03,03,29,56.30
2016,11,03,03,30,45.10
2016,11,03,03,31,43.50
2016,11,03,03,32,45.10
2016,11,03,03,33,37.00
2016,11,03,03,34,33.80
2016,11,03,03,35,56.30
2016,11,03,03,36,56.30
2016,11,03,03,37,35.40
2016,11,03,03,38,37.00
2016,11,03,03,39,45.10
2016,11,03,03,40,41.80
2016,11,03,03,41,56.30
2016,11,03,03,42,43.50
2016,11,03,03,43,46.70
2016,11,03,03,44,48.30
2016,11,03,03,45,27.40
2016,11,03,03,46,40.20
2016,11,03,03,47,40.20
2016,11,03,03,48,49.90
2016,11,03,03,49,46.70
2016,11,03,03,50,49.90
2016,11,03,03,51,38.60
2016,11,03,03,52,62.70
2016,11,03,03,53,53.10
2016,11,03,03,54,51.50
2016,11,03,03,55,45.10
2016,11,03,03,56,45.10
2016,11,03,03,57,41.80
2016,11,03,03,58,46.70
2016,11,03,03,59,45.10
2016,11,03,04,00,35.40
2016,11,03,04,01,41.80
2016,11,03,04,02,37.00
2016,11,03,04,03,25.70
2016,11,03,04,04,35.40
2016,11,03,04,05,40.20
2016,11,03,04,06,25.70
2016,11,03,04,07,41.80
2016,11,03,04,08,72.40
2016,11,03,04,09,59.50
2016,11,03,04,10,35.40
2016,11,03,04,11,33.80
2016,11,03,04,12,30.60
2016,11,03,04,13,37.00
2016,11,03,04,14,30.60
2016,11,03,04,15,33.80
2016,11,03,04,16,32.20
2016,11,03,04,17,33.80
2016,11,03,04,18,33.80
2016,11,03,04,19,27.40
2016,11,03,04,20,24.20
2016,11,03,04,21,35.40
2016,11,03,04,22,25.70
2016,11,03,04,23,33.80
2016,11,03,04,24,27.40
2016,11,03,04,25,25.70
2016,11,03,04,26,40.20
2016,11,03,04,27,35.40
2016,11,03,04,28,35.40
2016,11,03,04,29,33.80
2016,11,03,04,30,29.00
2016,11,03,04,31,35.40
2016,11,03,04,32,37.00
2016,11,03,04,33,27.40
2016,11,03,04,34,29.00
2016,11,03,04,35,24.20
2016,11,03,04,36,24.20
2016,11,03,04,37,41.80
2016,11,03,04,38,46.70
2016,11,03,04,39,29.00
2016,11,03,04,40,49.90
2016,11,03,04,41,43.50
2016,11,03,04,42,37.00
2016,11,03,04,43,45.10
2016,11,03,04,44,38.60
2016,11,03,04,45,56.30
2016,11,03,04,46,46.70
2016,11,03,04,47,49.90
2016,11,03,04,48,38.60
2016,11,03,04,49,46.70
2016,11,03,04,50,45.10
2016,11,03,04,51,54.70
2016,11,03,04,52,51.50
2016,11,03,04,53,40.20
2016,11,03,04,54,37.00
2016,11,03,04,55,30.60
2016,11,03,04,56,41.80
2016,11,03,04,57,30.60
2016,11,03,04,58,49.90
2016,11,03,04,59,41.80
2016,11,03,05,00,38.60
2016,11,03,05,01,40.20
2016,11,03,05,02,41.80
2016,11,03,05,03,45.10
2016,11,03,05,04,38.60
2016,11,03,05,05,41.80
2016,11,03,05,06,43.50
2016,11,03,05,07,32.20
2016,11,03,05,08,59.50
2016,11,03,05,09,49.90
2016,11,03,05,10,43.50
2016,11,03,05,11,35.40
2016,11,03,05,12,38.60
2016,11,03,05,13,43.50
2016,11,03,05,14,41.80
2016,11,03,05,15,45.10
2016,11,03,05,16,46.70
2016,11,03,05,17,40.20
2016,11,03,05,18,35.40
2016,11,03,05,19,43.50
2016,11,03,05,20,40.20
2016,11,03,05,21,49.90
2016,11,03,05,22,45.10
2016,11,03,05,23,40.20
2016,11,03,05,24,45.10
2016,11,03,05,25,41.80
2016,11,03,05,26,33.80
2016,11,03,05,27,35.40
2016,11,03,05,28,30.60
2016,11,03,05,29,37.00
2016,11,03,05,30,49.90
2016,11,03,05,31,41.80
2016,11,03,05,32,41.80
2016,11,03,05,33,32.20
2016,11,03,05,34,29.00
2016,11,03,05,35,40.20
2016,11,03,05,36,33.80
2016,11,03,05,37,35.40
2016,11,03,05,38,35.40
2016,11,03,05,39,48.30
2016,11,03,05,40,43.50
2016,11,03,05,41,35.40
2016,11,03,05,42,41.80
2016,11,03,05,43,35.40
2016,11,03,05,44,35.40
2016,11,03,05,45,29.00
2016,11,03,05,46,29.00
2016,11,03,05,47,27.40
2016,11,03,05,48,25.70
2016,11,03,05,49,27.40
2016,11,03,05,50,20.90
2016,11,03,05,51,25.70
2016,11,03,05,52,30.60
2016,11,03,05,53,37.00
2016,11,03,05,54,35.40
2016,11,03,05,55,27.40
2016,11,03,05,56,25.70
2016,11,03,05,57,30.60
2016,11,03,05,58,35.40
2016,11,03,05,59,38.60
2016,11,03,06,00,32.20
2016,11,03,06,01,33.80
2016,11,03,06,02,29.00
2016,11,03,06,03,35.40
2016,11,03,06,04,41.80
2016,11,03,06,05,41.80
2016,11,03,06,06,53.10
2016,11,03,06,07,46.70
2016,11,03,06,08,41.80
2016,11,03,06,09,37.00
2016,11,03,06,10,41.80
2016,11,03,06,11,45.10
2016,11,03,06,12,54.70
2016,11,03,06,13,38.60
2016,11,03,06,14,56.30
2016,11,03,06,15,48.30
2016,11,03,06,16,41.80
2016,11,03,06,17,38.60
2016,11,03,06,18,30.60
2016,11,03,06,19,35.40
2016,11,03,06,20,30.60
2016,11,03,06,21,48.30
2016,11,03,06,22,49.90
2016,11,03,06,23,38.60
2016,11,03,06,24,46.70
2016,11,03,06,25,38.60
2016,11,03,06,26,45.10
2016,11,03,06,27,35.40
2016,11,03,06,28,37.00
2016,11,03,06,29,46.70
2016,11,03,06,30,48.30
2016,11,03,06,31,35.40
2016,11,03,06,32,30.60
2016,11,03,06,33,38.60
2016,11,03,06,34,48.30
2016,11,03,06,35,41.80
2016,11,03,06,36,38.60
2016,11,03,06,37,33.80
2016,11,03,06,38,30.60
2016,11,03,06,39,35.40
2016,11,03,06,40,41.80
2016,11,03,06,41,33.80
2016,11,03,06,42,48.30
2016,11,03,06,43,37.00
2016,11,03,06,44,38.60
2016,11,03,06,45,41.80
2016,11,03,06,46,32.20
2016,11,03,06,47,33.80
2016,11,03,06,48,41.80
2016,11,03,06,49,37.00
2016,11,03,06,50,33.80
2016,11,03,06,51,33.80
2016,11,03,06,52,24.20
2016,11,03,06,53,38.60
2016,11,03,06,54,33.80
2016,11,03,06,55,27.40
2016,11,03,06,56,43.50
2016,11,03,06,57,35.40
2016,11,03,06,58,32.20
2016,11,03,06,59,30.60
2016,11,03,07,00,41.80
2016,11,03,07,01,40.20
2016,11,03,07,02,37.00
2016,11,03,07,03,22.50
2016,11,03,07,04,38.60
2016,11,03,07,05,35.40
2016,11,03,07,06,35.40
2016,11,03,07,07,37.00
2016,11,03,07,08,33.80
2016,11,03,07,09,40.20
2016,11,03,07,10,32.20
2016,11,03,07,11,38.60
2016,11,03,07,12,35.40
2016,11,03,07,13,35.40
2016,11,03,07,14,30.60
2016,11,03,07,15,40.20
2016,11,03,07,16,33.80
2016,11,03,07,17,25.70
2016,11,03,07,18,20.90
2016,11,03,07,19,20.90
2016,11,03,07,20,24.20
2016,11,03,07,21,37.00
2016,11,03,07,22,24.20
2016,11,03,07,23,22.50
2016,11,03,07,24,22.50
2016,11,03,07,25,29.00
2016,11,03,07,26,33.80
2016,11,03,07,27,37.00
2016,11,03,07,28,33.80
2016,11,03,07,29,35.40
2016,11,03,07,30,25.70
2016,11,03,07,31,40.20
2016,11,03,07,32,41.80
2016,11,03,07,33,25.70
2016,11,03,07,34,33.80
2016,11,03,07,35,22.50
2016,11,03,07,36,35.40
2016,11,03,07,37,32.20
2016,11,03,07,38,30.60
2016,11,03,07,39,29.00
2016,11,03,07,40,22.50
2016,11,03,07,41,25.70
2016,11,03,07,42,29.00
2016,11,03,07,43,32.20
2016,11,03,07,44,20.90
2016,11,03,07,45,24.20
2016,11,03,07,46,37.00
2016,11,03,07,47,22.50
2016,11,03,07,48,33.80
2016,11,03,07,49,24.20
2016,11,03,07,50,29.00
2016,11,03,07,51,32.20
2016,11,03,07,52,25.70
2016,11,03,07,53,24.20
2016,11,03,07,54,25.70
2016,11,03,07,55,27.40
2016,11,03,07,56,37.00
2016,11,03,07,57,27.40
2016,11,03,07,58,30.60
2016,11,03,07,59,33.80
2016,11,03,08,00,32.20
2016,11,03,08,01,33.80
2016,11,03,08,02,29.00
2016,11,03,08,03,30.60
2016,11,03,08,04,37.00
2016,11,03,08,05,30.60
2016,11,03,08,06,29.00
2016,11,03,08,07,30.60
2016,11,03,08,08,29.00
2016,11,03,08,09,24.20
2016,11,03,08,10,25.70
2016,11,03,08,11,33.80
2016,11,03,08,12,32.20
2016,11,03,08,13,27.40
2016,11,03,08,14,27.40
2016,11,03,08,15,37.00
2016,11,03,08,16,30.60
2016,11,03,08,17,37.00
2016,11,03,08,18,29.00
2016,11,03,08,19,38.60
2016,11,03,08,20,40.20
2016,11,03,08,21,20.90
2016,11,03,08,22,22.50
2016,11,03,08,23,27.40
2016,11,03,08,24,37.00
2016,11,03,08,25,33.80
2016,11,03,08,26,40.20
2016,11,03,08,27,25.70
2016,11,03,08,28,32.20
2016,11,03,08,29,25.70
2016,11,03,08,30,22.50
2016,11,03,08,31,32.20
2016,11,03,08,32,27.40
2016,11,03,08,33,30.60
2016,11,03,08,34,29.00
2016,11,03,08,35,27.40
2016,11,03,08,36,33.80
2016,11,03,08,37,27.40
2016,11,03,08,38,25.70
2016,11,03,08,39,22.50
2016,11,03,08,40,29.00
2016,11,03,08,41,24.20
2016,11,03,08,42,27.40
2016,11,03,08,43,29.00
2016,11,03,08,44,38.60
2016,11,03,08,45,30.60
2016,11,03,08,46,32.20
2016,11,03,08,47,24.20
2016,11,03,08,48,35.40
2016,11,03,08,49,38.60
2016,11,03,08,50,35.40
2016,11,03,08,51,30.60
2016,11,03,08,52,24.20
2016,11,03,08,53,37.00
2016,11,03,08,54,35.40
2016,11,03,08,55,33.80
2016,11,03,08,56,32.20
2016,11,03,08,57,29.00
2016,11,03,08,58,29.00
2016,11,03,08,59,37.00
2016,11,03,09,00,30.60
2016,11,03,09,01,22.50
2016,11,03,09,02,25.70
2016,11,03,09,03,37.00
2016,11,03,09,04,29.00
2016,11,03,09,05,37.00
2016,11,03,09,06,27.40
2016,11,03,09,07,24.20
2016,11,03,09,08,22.50
2016,11,03,09,09,22.50
2016,11,03,09,10,24.20
2016,11,03,09,11,33.80
2016,11,03,09,12,22.50
2016,11,03,09,13,24.20
2016,11,03,09,14,30.60
2016,11,03,09,15,22.50
2016,11,03,09,16,30.60
2016,11,03,09,17,33.80
2016,11,03,09,18,24.20
2016,11,03,09,19,37.00
2016,11,03,09,20,30.60
2016,11,03,09,21,25.70
2016,11,03,09,22,27.40
2016,11,03,09,23,25.70
2016,11,03,09,24,24.20
2016,11,03,09,25,22.50
2016,11,03,09,26,24.20
2016,11,03,09,27,29.00
2016,11,03,09,28,22.50
2016,11,03,09,29,27.40
2016,11,03,09,30,30.60
2016,11,03,09,31,27.40
2016,11,03,09,32,27.40
2016,11,03,09,33,27.40
2016,11,03,09,34,27.40
2016,11,03,09,35,25.70
2016,11,03,09,36,25.70
2016,11,03,09,37,25.70
2016,11,03,09,38,25.70
2016,11,03,09,39,25.70
2016,11,03,09,40,27.40
2016,11,03,09,41,22.50
2016,11,03,09,42,27.40
2016,11,03,09,43,32.20
2016,11,03,09,44,33.80
2016,11,03,09,45,24.20
2016,11,03,09,46,30.60
2016,11,03,09,47,32.20
2016,11,03,09,48,25.70
2016,11,03,09,49,33.80
2016,11,03,09,50,30.60
2016,11,03,09,51,24.20
2016,11,03,09,52,24.20
2016,11,03,09,53,17.70
2016,11,03,09,54,20.90
2016,11,03,09,55,32.20
2016,11,03,09,56,27.40
2016,11,03,09,57,30.60
2016,11,03,09,58,29.00
2016,11,03,09,59,33.80
2016,11,03,10,00,29.00
2016,11,03,10,01,27.40
2016,11,03,10,02,32.20
2016,11,03,10,03,24.20
2016,11,03,10,04,25.70
2016,11,03,10,05,30.60
2016,11,03,10,06,19.30
2016,11,03,10,07,17.70
2016,11,03,10,08,20.90
2016,11,03,10,09,27.40
2016,11,03,10,10,29.00
2016,11,03,10,11,22.50
2016,11,03,10,12,25.70
2016,11,03,10,13,27.40
2016,11,03,10,14,19.30
2016,11,03,10,15,16.10
2016,11,03,10,16,22.50
2016,11,03,10,17,27.40
2016,11,03,10,18,24.20
2016,11,03,10,19,22.50
2016,11,03,10,20,19.30
2016,11,03,10,21,25.70
2016,11,03,10,22,30.60
2016,11,03,10,23,25.70
2016,11,03,10,24,22.50
2016,11,03,10,25,27.40
2016,11,03,10,26,25.70
2016,11,03,10,27,24.20
2016,11,03,10,28,17.70
2016,11,03,10,29,29.00
2016,11,03,10,30,24.20
2016,11,03,10,31,22.50
2016,11,03,10,32,17.70
2016,11,03,10,33,20.90
2016,11,03,10,34,22.50
2016,11,03,10,35,20.90
2016,11,03,10,36,19.30
2016,11,03,10,37,19.30
2016,11,03,10,38,24.20
2016,11,03,10,39,19.30
2016,11,03,10,40,14.50
2016,11,03,10,41,22.50
2016,11,03,10,42,25.70
2016,11,03,10,43,20.90
2016,11,03,10,44,30.60
2016,11,03,10,45,33.80
2016,11,03,10,46,20.90
2016,11,03,10,47,14.50
2016,11,03,10,48,16.10
2016,11,03,10,49,20.90
2016,11,03,10,50,19.30
2016,11,03,10,51,22.50
2016,11,03,10,52,20.90
2016,11,03,10,53,24.20
2016,11,03,10,54,20.90
2016,11,03,10,55,25.70
2016,11,03,10,56,16.10
2016,11,03,10,57,24.20
2016,11,03,10,58,19.30
2016,11,03,10,59,19.30
2016,11,03,11,00,17.70
2016,11,03,11,01,16.10
2016,11,03,11,02,16.10
2016,11,03,11,03,17.70
2016,11,03,11,04,24.20
2016,11,03,11,05,20.90
2016,11,03,11,06,17.70
2016,11,03,11,07,24.20
2016,11,03,11,08,24.20
2016,11,03,11,09,27.40
2016,11,03,11,10,24.20
2016,11,03,11,11,19.30
2016,11,03,11,12,24.20
2016,11,03,11,13,20.90
2016,11,03,11,14,27.40
2016,11,03,11,15,24.20
2016,11,03,11,16,20.90
2016,11,03,11,17,20.90
2016,11,03,11,18,17.70
2016,11,03,11,19,19.30
2016,11,03,11,20,16.10
2016,11,03,11,21,24.20
2016,11,03,11,22,24.20
2016,11,03,11,23,25.70
2016,11,03,11,24,32.20
2016,11,03,11,25,29.00
2016,11,03,11,26,20.90
2016,11,03,11,27,27.40
2016,11,03,11,28,17.70
2016,11,03,11,29,16.10
2016,11,03,11,30,14.50
2016,11,03,11,31,24.20
2016,11,03,11,32,22.50
2016,11,03,11,33,24.20
2016,11,03,11,34,22.50
2016,11,03,11,35,24.20
2016,11,03,11,36,20.90
2016,11,03,11,37,22.50
2016,11,03,11,38,20.90
2016,11,03,11,39,17.70
2016,11,03,11,40,12.90
2016,11,03,11,41,22.50
2016,11,03,11,42,24.20
2016,11,03,11,43,17.70
2016,11,03,11,44,19.30
2016,11,03,11,45,20.90
2016,11,03,11,46,19.30
2016,11,03,11,47,24.20
2016,11,03,11,48,22.50
2016,11,03,11,49,14.50
2016,11,03,11,50,19.30
2016,11,03,11,51,14.50
2016,11,03,11,52,17.70
2016,11,03,11,53,11.30
2016,11,03,11,54,14.50
2016,11,03,11,55,14.50
2016,11,03,11,56,14.50
2016,11,03,11,57,11.30
2016,11,03,11,58,14.50
2016,11,03,11,59,14.50
2016,11,03,12,00,16.10
2016,11,03,12,01,12.90
2016,11,03,12,02,8.10
2016,11,03,12,03,14.50
2016,11,03,12,04,16.10
2016,11,03,12,05,16.10
2016,11,03,12,06,12.90
2016,11,03,12,07,16.10
2016,11,03,12,08,16.10
2016,11,03,12,09,16.10
2016,11,03,12,10,17.70
2016,11,03,12,11,11.30
2016,11,03,12,12,16.10
2016,11,03,12,13,14.50
2016,11,03,12,14,11.30
2016,11,03,12,15,9.60
2016,11,03,12,16,9.60
2016,11,03,12,17,14.50
2016,11,03,12,18,14.50
2016,11,03,12,19,9.60
2016,11,03,12,20,9.60
2016,11,03,12,21,8.10
2016,11,03,12,22,11.30
2016,11,03,12,23,12.90
2016,11,03,12,24,12.90
2016,11,03,12,25,11.30
2016,11,03,12,26,12.90
2016,11,03,12,27,8.10
2016,11,03,12,28,4.80
2016,11,03,12,29,3.20
2016,11,03,12,30,6.40
2016,11,03,12,31,11.30
2016,11,03,12,32,17.70
2016,11,03,12,33,16.10
2016,11,03,12,34,19.30
2016,11,03,12,35,17.70
2016,11,03,12,36,12.90
2016,11,03,12,37,11.30
2016,11,03,12,38,9.60
2016,11,03,12,39,11.30
2016,11,03,12,40,9.60
2016,11,03,12,41,8.10
2016,11,03,12,42,11.30
2016,11,03,12,43,16.10
2016,11,03,12,44,14.50
2016,11,03,12,45,12.90
2016,11,03,12,46,12.90
2016,11,03,12,47,14.50
2016,11,03,12,48,19.30
2016,11,03,12,49,20.90
2016,11,03,12,50,16.10
2016,11,03,12,51,14.50
2016,11,03,12,52,12.90
2016,11,03,12,53,14.50
2016,11,03,12,54,12.90
2016,11,03,12,55,17.70
2016,11,03,12,56,19.30
2016,11,03,12,57,19.30
2016,11,03,12,58,16.10
2016,11,03,12,59,9.60
2016,11,03,13,00,17.70
2016,11,03,13,01,19.30
2016,11,03,13,02,17.70
2016,11,03,13,03,12.90
2016,11,03,13,04,12.90
2016,11,03,13,05,9.60
2016,11,03,13,06,14.50
2016,11,03,13,07,12.90
2016,11,03,13,08,11.30
2016,11,03,13,09,11.30
2016,11,03,13,10,16.10
2016,11,03,13,11,17.70
2016,11,03,13,12,17.70
2016,11,03,13,13,12.90
2016,11,03,13,14,11.30
2016,11,03,13,15,16.10
2016,11,03,13,16,14.50
2016,11,03,13,17,16.10
2016,11,03,13,18,17.70
2016,11,03,13,19,20.90
2016,11,03,13,20,24.20
2016,11,03,13,21,22.50
2016,11,03,13,22,30.60
2016,11,03,13,23,27.40
2016,11,03,13,24,22.50
2016,11,03,13,25,19.30
2016,11,03,13,26,16.10
2016,11,03,13,27,22.50
2016,11,03,13,28,24.20
2016,11,03,13,29,22.50
2016,11,03,13,30,19.30
2016,11,03,13,31,20.90
2016,11,03,13,32,25.70
2016,11,03,13,33,17.70
2016,11,03,13,34,20.90
2016,11,03,13,35,20.90
2016,11,03,13,36,22.50
2016,11,03,13,37,24.20
2016,11,03,13,38,29.00
2016,11,03,13,39,22.50
2016,11,03,13,40,24.20
2016,11,03,13,41,22.50
2016,11,03,13,42,20.90
2016,11,03,13,43,29.00
2016,11,03,13,44,22.50
2016,11,03,13,45,22.50
2016,11,03,13,46,24.20
2016,11,03,13,47,24.20
2016,11,03,13,48,20.90
2016,11,03,13,49,29.00
2016,11,03,13,50,22.50
2016,11,03,13,51,17.70
2016,11,03,13,52,24.20
2016,11,03,13,53,20.90
2016,11,03,13,54,16.10
2016,11,03,13,55,17.70
2016,11,03,13,56,27.40
2016,11,03,13,57,17.70
2016,11,03,13,58,20.90
2016,11,03,13,59,25.70
2016,11,03,14,00,17.70
2016,11,03,14,01,24.20
2016,11,03,14,02,25.70
2016,11,03,14,03,29.00
2016,11,03,14,04,24.20
2016,11,03,14,05,27.40
2016,11,03,14,06,22.50
2016,11,03,14,07,27.40
2016,11,03,14,08,29.00
2016,11,03,14,09,27.40
2016,11,03,14,10,30.60
2016,11,03,14,11,19.30
2016,11,03,14,12,24.20
2016,11,03,14,13,25.70
2016,11,03,14,14,22.50
2016,11,03,14,15,17.70
2016,11,03,14,16,19.30
2016,11,03,14,17,16.10
2016,11,03,14,18,24.20
2016,11,03,14,19,25.70
2016,11,03,14,20,27.40
2016,11,03,14,21,25.70
2016,11,03,14,22,27.40
2016,11,03,14,23,30.60
2016,11,03,14,24,22.50
2016,11,03,14,25,22.50
2016,11,03,14,26,22.50
2016,11,03,14,27,22.50
2016,11,03,14,28,29.00
2016,11,03,14,29,24.20
2016,11,03,14,30,25.70
2016,11,03,14,31,27.40
2016,11,03,14,32,25.70
2016,11,03,14,33,25.70
2016,11,03,14,34,35.40
2016,11,03,14,35,32.20
2016,11,03,14,36,37.00
2016,11,03,14,37,30.60
2016,11,03,14,38,27.40
2016,11,03,14,39,30.60
2016,11,03,14,40,24.20
2016,11,03,14,41,25.70
2016,11,03,14,42,30.60
2016,11,03,14,43,24.20
2016,11,03,14,44,19.30
2016,11,03,14,45,24.20
2016,11,03,14,46,22.50
2016,11,03,14,47,25.70
2016,11,03,14,48,32.20
2016,11,03,14,49,27.40
2016,11,03,14,50,25.70
2016,11,03,14,51,25.70
2016,11,03,14,52,17.70
2016,11,03,14,53,20.90
2016,11,03,14,54,24.20
2016,11,03,14,55,22.50
2016,11,03,14,56,20.90
2016,11,03,14,57,24.20
2016,11,03,14,58,35.40
2016,11,03,14,59,33.80
2016,11,03,15,00,32.20
2016,11,03,15,01,32.20
2016,11,03,15,02,32.20
2016,11,03,15,03,35.40
2016,11,03,15,04,27.40
2016,11,03,15,05,32.20
2016,11,03,15,06,25.70
2016,11,03,15,07,30.60
2016,11,03,15,08,40.20
2016,11,03,15,09,33.80
2016,11,03,15,10,29.00
2016,11,03,15,11,29.00
2016,11,03,15,12,43.50
2016,11,03,15,13,30.60
2016,11,03,15,14,25.70
2016,11,03,15,15,32.20
2016,11,03,15,16,33.80
2016,11,03,15,17,43.50
2016,11,03,15,18,30.60
2016,11,03,15,19,35.40
2016,11,03,15,20,32.20
2016,11,03,15,21,40.20
2016,11,03,15,22,38.60
2016,11,03,15,23,38.60
2016,11,03,15,24,35.40
2016,11,03,15,25,25.70
2016,11,03,15,26,38.60
2016,11,03,15,27,33.80
2016,11,03,15,28,37.00
2016,11,03,15,29,37.00
2016,11,03,15,30,27.40
2016,11,03,15,31,38.60
2016,11,03,15,32,29.00
2016,11,03,15,33,33.80
2016,11,03,15,34,35.40
2016,11,03,15,35,40.20
2016,11,03,15,36,32.20
2016,11,03,15,37,27.40
2016,11,03,15,38,32.20
2016,11,03,15,39,35.40
2016,11,03,15,40,32.20
2016,11,03,15,41,41.80
2016,11,03,15,42,41.80
2016,11,03,15,43,37.00
2016,11,03,15,44,20.90
2016,11,03,15,45,29.00
2016,11,03,15,46,20.90
2016,11,03,15,47,40.20
2016,11,03,15,48,29.00
2016,11,03,15,49,48.30
2016,11,03,15,50,37.00
2016,11,03,15,51,41.80
2016,11,03,15,52,48.30
2016,11,03,15,53,38.60
2016,11,03,15,54,40.20
2016,11,03,15,55,40.20
2016,11,03,15,56,32.20
2016,11,03,15,57,40.20
2016,11,03,15,58,30.60
2016,11,03,15,59,22.50
2016,11,03,16,00,35.40
2016,11,03,16,01,35.40
2016,11,03,16,02,29.00
2016,11,03,16,03,27.40
2016,11,03,16,04,32.20
2016,11,03,16,05,35.40
2016,11,03,16,06,29.00
2016,11,03,16,07,33.80
2016,11,03,16,08,41.80
2016,11,03,16,09,38.60
2016,11,03,16,10,29.00
2016,11,03,16,11,30.60
2016,11,03,16,12,43.50
2016,11,03,16,13,48.30
2016,11,03,16,14,33.80
2016,11,03,16,15,25.70
2016,11,03,16,16,38.60
2016,11,03,16,17,30.60
2016,11,03,16,18,35.40
2016,11,03,16,19,43.50
2016,11,03,16,20,37.00
2016,11,03,16,21,30.60
2016,11,03,16,22,38.60
2016,11,03,16,23,30.60
2016,11,03,16,24,40.20
2016,11,03,16,25,29.00
2016,11,03,16,26,24.20
2016,11,03,16,27,30.60
2016,11,03,16,28,40.20
2016,11,03,16,29,45.10
2016,11,03,16,30,49.90
2016,11,03,16,31,33.80
2016,11,03,16,32,22.50
2016,11,03,16,33,29.00
2016,11,03,16,34,27.40
2016,11,03,16,35,32.20
2016,11,03,16,36,38.60
2016,11,03,16,37,30.60
2016,11,03,16,38,29.00
2016,11,03,16,39,32.20
2016,11,03,16,40,29.00
2016,11,03,16,41,38.60
2016,11,03,16,42,29.00
2016,11,03,16,43,35.40
2016,11,03,16,44,37.00
2016,11,03,16,45,30.60
2016,11,03,16,46,29.00
2016,11,03,16,47,33.80
2016,11,03,16,48,45.10
2016,11,03,16,49,29.00
2016,11,03,16,50,41.80
2016,11,03,16,51,38.60
2016,11,03,16,52,33.80
2016,11,03,16,53,46.70
2016,11,03,16,54,29.00
2016,11,03,16,55,27.40
2016,11,03,16,56,29.00
2016,11,03,16,57,33.80
2016,11,03,16,58,29.00
2016,11,03,16,59,30.60
2016,11,03,17,00,30.60
2016,11,03,17,01,27.40
2016,11,03,17,02,41.80
2016,11,03,17,03,46.70
2016,11,03,17,04,38.60
2016,11,03,17,05,33.80
2016,11,03,17,06,45.10
2016,11,03,17,07,37.00
2016,11,03,17,08,40.20
2016,11,03,17,09,37.00
2016,11,03,17,10,29.00
2016,11,03,17,11,32.20
2016,11,03,17,12,30.60
2016,11,03,17,13,41.80
2016,11,03,17,14,41.80
2016,11,03,17,15,37.00
2016,11,03,17,16,33.80
2016,11,03,17,17,32.20
2016,11,03,17,18,33.80
2016,11,03,17,19,25.70
2016,11,03,17,20,33.80